Weather History for KOKM - May, 2014

Change the Weather History Date:

Sunday, May 18, 2014

  Actual Average (KMKO) Record (KMKO)
Temperature  
Mean Temperature 62 °F -  
Max Temperature 76 °F 77 °F 89 °F (1998)
Min Temperature 48 °F 56 °F 46 °F (2002)
Degree Days  
Heating Degree Days 4    
Growing Degree Days 12 (Base 50)    
Moisture  
Dew Point 55 °F    
Average Humidity 81    
Maximum Humidity 98    
Minimum Humidity 56    
Precipitation  
Precipitation 0.00 in - - ()
Sea Level Pressure  
Sea Level Pressure 30.08 in    
Wind  
Wind Speed 7 mph (ESE)    
Max Wind Speed 18 mph    
Max Gust Speed 25 mph    
Visibility 9 miles    
Events      
Averages and records for this station are not official NWS values.
T = Trace of Precipitation, MM = Missing Value Source: NWS Daily Summary

Daily Weather History Graph

Daily Weather History Graph

Search for Another Location

Airport or City:

Trip Planner

Search our weather history database for the weather conditions in past years. The results will help you decide how hot, cold, wet, or windy it might be!

Date:

Astronomy

May. 18, 2014 Rise Set
Actual Time 6:16 AM CDT 8:24 PM CDT
Civil Twilight 5:47 AM CDT 8:53 PM CDT
Nautical Twilight 5:13 AM CDT 9:28 PM CDT
Astronomical Twilight 4:35 AM CDT 10:05 PM CDT
Moon No Moon Rise 10:05 AM CDT (5/18)
Length of Visible Light 15h 05m
Length of Day
14h 07m
Waning Gibbous, 81% of the Moon is Illuminated
May 18
Waning Gibbous
May 21
Last Quarter
May 28
New
Jun 5
First Quarter
Jun 12
Full

Hourly Weather History & Observations

Time (CDT) Temp. Dew Point Humidity Pressure Visibility Wind Dir Wind Speed Gust Speed Precip Events Conditions
12:15 AM 51.4 °F 50.0 °F 95% 30.14 in 10.0 mi East 4.6 mph - N/A   Clear
12:35 AM 50.4 °F 49.3 °F 96% 30.14 in 10.0 mi East 3.5 mph - N/A   Clear
12:55 AM 50.7 °F 49.8 °F 97% 30.14 in 10.0 mi East 4.6 mph - N/A   Clear
1:15 AM 50.5 °F 49.6 °F 97% 30.13 in 10.0 mi East 4.6 mph - N/A   Clear
1:35 AM 50.5 °F 49.5 °F 96% 30.13 in 7.0 mi ENE 5.8 mph - N/A   Clear
1:55 AM 50.2 °F 49.3 °F 97% 30.13 in 7.0 mi ESE 6.9 mph - N/A   Clear
2:15 AM 50.0 °F 48.9 °F 96% 30.13 in 7.0 mi ENE 4.6 mph - N/A   Clear
2:35 AM 49.5 °F 48.6 °F 97% 30.13 in 7.0 mi ENE 3.5 mph - N/A   Clear
2:55 AM 48.7 °F 48.2 °F 98% 30.12 in 5.0 mi ENE 4.6 mph - N/A   Clear
3:15 AM 48.9 °F 48.2 °F 97% 30.12 in 7.0 mi ENE 3.5 mph - N/A   Clear
3:35 AM 48.7 °F 48.2 °F 98% 30.12 in 7.0 mi NNE 4.6 mph - N/A   Clear
3:55 AM 48.4 °F 47.7 °F 97% 30.12 in 7.0 mi NE 3.5 mph - N/A   Clear
4:15 AM 48.4 °F 47.7 °F 97% 30.12 in 7.0 mi ENE 4.6 mph - N/A   Clear
4:35 AM 48.7 °F 47.8 °F 97% 30.12 in 7.0 mi East 3.5 mph - N/A   Scattered Clouds
4:55 AM 49.1 °F 48.2 °F 97% 30.12 in 7.0 mi East 4.6 mph - N/A   Scattered Clouds
5:15 AM 49.8 °F 48.6 °F 95% 30.12 in 10.0 mi ESE 5.8 mph - N/A   Mostly Cloudy
5:35 AM 50.0 °F 48.6 °F 95% 30.13 in 10.0 mi ESE 4.6 mph - N/A   Overcast
5:55 AM 49.8 °F 48.4 °F 95% 30.14 in 7.0 mi East 3.5 mph - N/A   Overcast
6:15 AM 50.2 °F 49.1 °F 96% 30.13 in 7.0 mi ENE 5.8 mph - N/A   Overcast
6:35 AM 50.5 °F 49.3 °F 95% 30.13 in 7.0 mi East 4.6 mph - N/A   Overcast
6:55 AM 50.5 °F 49.3 °F 95% 30.13 in 7.0 mi ENE 5.8 mph - N/A   Overcast
7:15 AM 50.9 °F 49.5 °F 95% 30.13 in 7.0 mi East 5.8 mph - N/A   Overcast
7:35 AM 51.4 °F 50.0 °F 95% 30.14 in 7.0 mi East 5.8 mph - N/A   Overcast
7:55 AM 52.3 °F 50.9 °F 95% 30.14 in 7.0 mi ESE 9.2 mph - N/A   Overcast
8:15 AM 53.4 °F 51.1 °F 92% 30.14 in 10.0 mi ESE 8.1 mph - N/A   Mostly Cloudy
8:35 AM 55.2 °F 51.8 °F 88% 30.15 in 10.0 mi ESE 9.2 mph - N/A   Mostly Cloudy
8:55 AM 56.8 °F 52.2 °F 84% 30.14 in 10.0 mi ESE 10.4 mph - N/A   Scattered Clouds
9:15 AM 57.9 °F 52.9 °F 83% 30.15 in 10.0 mi ESE 10.4 mph - N/A   Scattered Clouds
9:35 AM 59.2 °F 53.2 °F 81% 30.15 in 10.0 mi SE 11.5 mph - N/A   Overcast
9:55 AM 59.7 °F 54.0 °F 81% 30.14 in 10.0 mi SSE 11.5 mph 16.1 mph N/A   Overcast
10:15 AM 59.9 °F 54.3 °F 82% 30.15 in 10.0 mi SE 6.9 mph - N/A   Overcast
10:35 AM 60.3 °F 54.9 °F 82% 30.15 in 10.0 mi SE 5.8 mph 16.1 mph N/A   Overcast
10:55 AM 61.0 °F 55.8 °F 83% 30.14 in 10.0 mi SE 8.1 mph - N/A   Overcast
11:15 AM 61.5 °F 55.9 °F 82% 30.14 in 10.0 mi ESE 6.9 mph - N/A   Overcast
11:35 AM 62.6 °F 56.1 °F 79% 30.13 in 10.0 mi ESE 4.6 mph - N/A   Overcast
11:55 AM 62.8 °F 56.1 °F 79% 30.12 in 10.0 mi ESE 10.4 mph - N/A   Overcast
12:15 PM 64.0 °F 56.8 °F 77% 30.12 in 10.0 mi SE 10.4 mph 18.4 mph N/A   Overcast
12:35 PM 65.5 °F 58.1 °F 77% 30.11 in 10.0 mi SE 9.2 mph 17.3 mph N/A   Overcast
12:55 PM 65.8 °F 57.9 °F 76% 30.11 in 10.0 mi SE 6.9 mph 19.6 mph N/A   Overcast
1:15 PM 66.6 °F 58.3 °F 75% 30.10 in 10.0 mi SSE 9.2 mph - N/A   Overcast
1:35 PM 67.6 °F 58.8 °F 73% 30.09 in 10.0 mi SSE 12.7 mph 19.6 mph N/A   Overcast
1:55 PM 69.1 °F 59.7 °F 72% 30.08 in 10.0 mi SSE 15.0 mph 18.4 mph N/A   Mostly Cloudy
2:15 PM 70.7 °F 60.4 °F 70% 30.07 in 10.0 mi SSE 11.5 mph 25.3 mph N/A   Overcast
2:35 PM 71.2 °F 61.0 °F 70% 30.06 in 10.0 mi SE 11.5 mph 18.4 mph N/A   Overcast
2:55 PM 71.6 °F 61.0 °F 69% 30.05 in 10.0 mi SSE 12.7 mph - N/A   Overcast
3:15 PM 72.3 °F 61.2 °F 68% 30.05 in 10.0 mi SSE 16.1 mph 21.9 mph N/A   Overcast
3:35 PM 73.8 °F 61.9 °F 66% 30.05 in 10.0 mi SE 12.7 mph 17.3 mph N/A   Mostly Cloudy
3:55 PM 73.6 °F 61.0 °F 65% 30.04 in 10.0 mi SSE 11.5 mph - N/A   Mostly Cloudy
4:15 PM 74.3 °F 59.7 °F 60% 30.03 in 10.0 mi South 12.7 mph 19.6 mph N/A   Mostly Cloudy
4:35 PM 75.7 °F 60.3 °F 59% 30.03 in 10.0 mi SSE 16.1 mph 21.9 mph N/A   Scattered Clouds
4:55 PM 74.5 °F 59.5 °F 60% 30.02 in 10.0 mi SSE 15.0 mph 20.7 mph N/A   Scattered Clouds
5:15 PM 75.7 °F 59.9 °F 58% 30.01 in 10.0 mi South 16.1 mph 21.9 mph N/A   Scattered Clouds
5:35 PM 75.2 °F 59.4 °F 58% 30.01 in 10.0 mi South 17.3 mph 23.0 mph N/A   Scattered Clouds
5:55 PM 75.6 °F 59.2 °F 57% 30.00 in 10.0 mi SSE 17.3 mph 23.0 mph N/A   Scattered Clouds
6:15 PM 75.9 °F 59.0 °F 56% 30.00 in 10.0 mi South 17.3 mph 20.7 mph N/A   Mostly Cloudy
6:35 PM 75.2 °F 59.5 °F 58% 29.99 in 10.0 mi SSE 16.1 mph 25.3 mph N/A   Mostly Cloudy
6:55 PM 74.5 °F 59.2 °F 59% 29.99 in 10.0 mi SE 15.0 mph 18.4 mph N/A   Clear
7:15 PM 73.4 °F 57.6 °F 58% 29.98 in 10.0 mi SE 18.4 mph 25.3 mph N/A   Clear
7:35 PM 72.5 °F 57.4 °F 59% 29.97 in 10.0 mi SE 15.0 mph 23.0 mph N/A   Clear
7:55 PM 70.9 °F 57.7 °F 63% 29.97 in 10.0 mi SE 12.7 mph 20.7 mph N/A   Clear
8:15 PM 69.8 °F 57.6 °F 65% 29.97 in 10.0 mi SE 11.5 mph - N/A   Clear
8:35 PM 69.1 °F 57.7 °F 67% 29.97 in 10.0 mi SE 10.4 mph - N/A   Clear
8:55 PM 68.4 °F 58.1 °F 70% 29.97 in 10.0 mi SE 12.7 mph - N/A   Clear
9:15 PM 67.6 °F 58.1 °F 71% 29.97 in 10.0 mi SE 9.2 mph - N/A   Clear
9:35 PM 65.7 °F 57.9 °F 76% 29.98 in 10.0 mi ESE 6.9 mph - N/A   Clear
9:55 PM 63.5 °F 58.3 °F 83% 29.97 in 10.0 mi SE 6.9 mph - N/A   Clear
10:15 PM 62.8 °F 59.0 °F 87% 29.98 in 10.0 mi SSE 5.8 mph - N/A   Clear
10:35 PM 62.6 °F 59.2 °F 89% 29.98 in 10.0 mi SSE 5.8 mph - N/A   Clear
10:55 PM 62.1 °F 59.4 °F 91% 29.98 in 10.0 mi SSE 6.9 mph - N/A   Clear
11:15 PM 61.3 °F 59.0 °F 92% 29.99 in 10.0 mi SSE 6.9 mph - N/A   Clear
11:35 PM 61.0 °F 59.0 °F 93% 29.99 in 10.0 mi South 6.9 mph - N/A   Clear
11:55 PM 60.4 °F 58.5 °F 93% 30.00 in 10.0 mi SSE 6.9 mph - N/A   Clear